Marietta McCollum Field, GA

4:26 PM EDT on October 16, 2019 (GMT -0400)
Cobb County-McCollum

Weather History for KRYY - September, 2019

Change the Weather History Date:

Monday, September 16, 2019

  Actual Average (WUND) Record (WUND)
Temperature  
Mean Temperature 82 °F -  
Max Temperature 93 °F - - (-1)
Min Temperature 70 °F - - (-1)
Cooling Degree Days 16    
Growing Degree Days 32 (Base 50)    
Moisture  
Dew Point 67 °F    
Average Humidity 67    
Maximum Humidity 97    
Minimum Humidity 33    
Precipitation  
Precipitation 0.00 in - - ()
Sea Level Pressure  
Sea Level Pressure 29.26 in    
Wind  
Wind Speed 1 mph ()    
Max Wind Speed 8 mph    
Max Gust Speed -    
Visibility 10.0 miles    
Events      
Averages and records for this station are not official NWS values.
T = Trace of Precipitation, MM = Missing Value Source: Averaged Metar Reports

Daily Weather History Graph

Daily Weather History Graph

Search for Another Location

Airport or City:

Astronomy

Sep. 16, 2019 Rise Set
Actual Time 7:22 AM EDT 7:43 PM EDT
Civil Twilight 6:57 AM EDT 8:08 PM EDT
Nautical Twilight 6:27 AM EDT 8:38 PM EDT
Astronomical Twilight 5:57 AM EDT 9:07 PM EDT
Moon 9:23 PM EDT 9:24 AM EDT
Length of Visible Light 13h 11m
Length of Day
12h 21m
Waning Gibbous, 94% of the Moon is Illuminated
Sep 16
Waning Gibbous
Sep 21
Last Quarter
Sep 28
New
Oct 5
First Quarter
Oct 13
Full

Hourly Weather History & Observations

Time (EDT) Temp. Heat Index Dew Point Humidity Pressure Visibility Wind Dir Wind Speed Gust Speed Precip Events Conditions
12:50 AM 75.0 °F - 70.0 °F 84% 29.29 in 10.0 mi Calm Calm - N/A   Clear
1:50 AM 73.9 °F - 70.0 °F 87% 29.29 in 10.0 mi Calm Calm - N/A   Clear
2:50 AM 73.0 °F - 69.1 °F 87% 29.29 in 10.0 mi Calm Calm - N/A   Clear
3:50 AM 71.1 °F - 69.1 °F 93% 29.28 in 10.0 mi Calm Calm - N/A   Clear
4:50 AM 71.1 °F - 69.1 °F 93% 29.28 in 10.0 mi Calm Calm - N/A   Clear
5:50 AM 70.0 °F - 68.0 °F 93% 29.29 in 10.0 mi Calm Calm - N/A   Clear
6:50 AM 70.0 °F - 69.1 °F 97% 29.30 in 10.0 mi Calm Calm - N/A   Clear
7:50 AM 70.0 °F - 69.1 °F 97% 29.31 in 9.0 mi Calm Calm - N/A   Clear
8:50 AM 75.0 °F - 70.0 °F 84% 29.32 in 10.0 mi Calm Calm - N/A   Clear
9:50 AM 79.0 °F - 71.1 °F 77% 29.33 in 10.0 mi Calm Calm - N/A   Clear
10:50 AM 84.0 °F 88.4 °F 70.0 °F 63% 29.32 in 10.0 mi Calm Calm - N/A   Clear
11:50 AM 87.1 °F 91.3 °F 69.1 °F 55% 29.31 in 10.0 mi North 8.1 mph - N/A   Clear
12:50 PM 89.1 °F 92.1 °F 66.9 °F 48% 29.29 in 10.0 mi Variable 4.6 mph - N/A   Clear
1:50 PM 91.0 °F 93.0 °F 64.9 °F 42% 29.27 in 10.0 mi North 5.8 mph - N/A   Clear
2:50 PM 91.9 °F 92.5 °F 62.1 °F 37% 29.24 in 10.0 mi NNW 4.6 mph - N/A   Partly Cloudy
3:50 PM 93.0 °F 93.0 °F 61.0 °F 34% 29.22 in 10.0 mi Variable 4.6 mph - N/A   Clear
4:50 PM 93.0 °F 92.7 °F 60.1 °F 33% 29.20 in 10.0 mi North 5.8 mph - N/A   Clear
5:50 PM 93.9 °F 94.0 °F 61.0 °F 33% 29.20 in 10.0 mi East 3.5 mph - N/A   Clear
7:50 PM 84.9 °F 85.9 °F 63.0 °F 48% 29.19 in 10.0 mi Calm Calm - N/A   Clear
8:50 PM 82.0 °F 83.4 °F 64.0 °F 54% 29.20 in 10.0 mi Calm Calm - N/A   Clear
9:50 PM 79.0 °F - 64.0 °F 60% 29.21 in 10.0 mi Calm Calm - N/A   Clear
10:50 PM 77.0 °F - 66.0 °F 69% 29.22 in 10.0 mi Calm Calm - N/A   Clear
11:50 PM 73.9 °F - 66.9 °F 79% 29.22 in 10.0 mi Calm Calm - N/A   Clear